This is the latest recevied weather packets stored in our database for station/object OK2ZAW-19. If no packets are shown the sender has not sent any weather packets the latest 10 day(s).
| Time | Temp. | Humidity | Pressure | Rain* | Wind** | Luminosity | Snow |
|---|---|---|---|---|---|---|---|
| 1777660268 | 12.22° C | 48% | 1026.5 hPa | - | - | 337 W/m² | - |
| 1777659957 | 12.78° C | 47% | 1026.4 hPa | - | - | 337 W/m² | - |
| 1777659336 | 13.89° C | 44% | 1026.2 hPa | - | - | 337 W/m² | - |
| 1777659025 | 14.44° C | 44% | 1026.2 hPa | - | - | 337 W/m² | - |
| 1777658714 | 15.56° C | 43% | 1026.1 hPa | - | - | 337 W/m² | - |
| 1777658403 | 16.11° C | 42% | 1026 hPa | - | - | 337 W/m² | - |
| 1777658092 | 16.67° C | 40% | 1025.9 hPa | - | - | 337 W/m² | - |
| 1777657781 | 17.22° C | 39% | 1025.9 hPa | - | - | 337 W/m² | - |
| 1777657470 | 17.78° C | 39% | 1025.8 hPa | - | - | 337 W/m² | - |
| 1777657159 | 18.33° C | 38% | 1025.8 hPa | - | - | 337 W/m² | - |
| 1777656848 | 18.33° C | 37% | 1025.8 hPa | - | - | 337 W/m² | - |
| 1777655602 | 20.56° C | 35% | 1025.7 hPa | - | - | 337 W/m² | - |
| 1777655290 | 21.11° C | 33% | 1025.8 hPa | - | - | 337 W/m² | - |
| 1777654979 | 21.11° C | 33% | 1025.8 hPa | - | - | 337 W/m² | - |
| 1777654667 | 21.67° C | 33% | 1025.8 hPa | - | - | 337 W/m² | - |
| 1777654356 | 21.67° C | 32% | 1025.8 hPa | - | - | 337 W/m² | - |
| 1777654044 | 21.67° C | 33% | 1025.8 hPa | - | - | 337 W/m² | - |
| 1777653733 | 21.11° C | 32% | 1025.8 hPa | - | - | 337 W/m² | - |
| 1777653421 | 21.67° C | 32% | 1025.9 hPa | - | - | 337 W/m² | - |
| 1777653109 | 21.67° C | 32% | 1026 hPa | - | - | 337 W/m² | - |
| 1777652798 | 22.22° C | 32% | 1026 hPa | - | - | 338 W/m² | - |
| 1777651862 | 22.22° C | 31% | 1026 hPa | - | - | 337 W/m² | - |
| 1777651551 | 22.22° C | 32% | 1026.1 hPa | - | - | 337 W/m² | - |
| 1777651239 | 22.78° C | 31% | 1026.2 hPa | - | - | 337 W/m² | - |
| 1777650927 | 22.78° C | 31% | 1026.2 hPa | - | - | 338 W/m² | - |
* Rain since midnight (hover to see other rain measurements)
** Current wind speed in m/s (hover to see current wind gust speed)